MST,Max TemperatureF,Mean TemperatureF,Min TemperatureF,Max Dew PointF,MeanDew PointF,Min DewpointF,Max Humidity, Mean Humidity, Min Humidity, Max Sea Level PressureIn, Mean Sea Level PressureIn, Min Sea Level PressureIn, Max VisibilityMiles, Mean VisibilityMiles, Min VisibilityMiles, Max Wind SpeedMPH, Mean Wind SpeedMPH, Max Gust SpeedMPH,PrecipitationIn, CloudCover, Events, WindDirDegrees
2013-1-1,-18,-24,-30,-24,-32,-36,75,69,53,30.00,29.99,29.97,,,,5,4,,0.08,,,321
2013-1-2,-18,-26,-34,-24,-34,-42,75,68,49,30.08,30.03,29.96,,,,6,4,,0.26,,,320
2013-1-3,-21,-28,-36,-27,-32,-41,73,69,52,29.92,29.75,29.65,,,,5,2,,0.25,,,41
2013-1-4,-15,-22,-29,-22,-26,-36,76,72,58,29.63,29.53,29.46,,,,31,5,,0.00,,,4
2013-1-5,-15,-21,-27,-23,-29,-35,76,70,56,29.82,29.76,29.66,,,,20,9,21,0.00,,,311
2013-1-6,-11,-20,-29,-17,-20,-25,78,75,64,29.68,29.62,29.55,,,,15,5,,0.00,,,83
2013-1-7,-11,-19,-27,-17,-28,-34,78,70,53,29.56,29.51,29.44,,,,12,5,,0.11,,,49
2013-1-8,-23,-32,-40,-30,-40,-49,72,64,41,29.60,29.50,29.43,,,,16,5,20,0.00,,,333
2013-1-9,-32,-34,-36,-40,-42,-44,67,62,45,29.83,29.71,29.61,,,,22,17,,0.00,,,302
2013-1-10,-28,-32,-36,-37,-41,-43,67,63,45,30.15,30.01,29.84,,,,15,9,,0.00,,,351
2013-1-11,-28,-32,-37,-36,-42,-45,68,63,43,30.16,30.12,30.07,,,,8,4,,0.01,,,31
2013-1-12,-34,-37,-40,-45,-47,-49,65,61,41,30.14,30.11,30.07,,,,7,3,,0.00,,,30
2013-1-13,-32,-36,-40,-40,-46,-50,67,61,41,30.15,30.11,30.01,,,,5,2,,0.00,,,355
2013-1-14,-29,-32,-36,-37,-41,-44,68,64,47,30.01,29.88,29.76,,,,13,6,,0.11,,,313
2013-1-15,-35,-40,-46,-44,-50,-56,64,58,38,29.74,29.63,29.55,,,,14,9,,0.05,,,316
2013-1-16,-32,-39,-46,-42,-49,-52,66,59,41,29.55,29.50,29.44,,,,8,3,,0.06,,,346
2013-1-17,-11,-22,-34,-20,-24,-42,74,68,48,29.67,29.54,29.44,,,,17,8,20,0.00,,,320
2013-1-18,-19,-24,-30,-30,-35,-39,69,62,43,29.75,29.72,29.68,,,,18,9,,0.00,,,313
2013-1-19,-22,-26,-31,-30,-33,-36,70,65,46,29.75,29.73,29.71,,,,23,17,26,0.00,,,307
2013-1-20,-13,-21,-29,-21,-26,-36,76,71,54,29.80,29.76,29.73,,,,23,16,,0.01,,,312
2013-1-21,-17,-24,-31,-26,-33,-39,71,66,47,30.01,29.90,29.80,,,,12,7,,0.00,,,312
2013-1-22,-18,-26,-33,-26,-31,-36,73,67,49,30.14,30.09,30.02,,,,22,9,21,0.00,,,320
2013-1-23,1,-14,-30,-5,-10,-23,82,78,63,30.04,30.01,29.97,,,,28,20,30,0.01,,,306
2013-1-24,-7,-14,-22,-15,-23,-28,78,73,59,30.07,30.02,29.96,,,,24,20,,0.00,,,300
2013-1-25,-16,-22,-27,-21,-29,-35,75,67,46,29.96,29.93,29.91,,,,22,14,,0.00,,,318
2013-1-26,-16,-24,-31,-27,-34,-38,70,65,47,29.97,29.95,29.91,,,,5,3,,0.00,,,330
2013-1-27,-13,-22,-32,-18,-30,-39,77,69,46,30.02,30.00,29.97,,,,5,3,,0.01,,,349
2013-1-28,-8,-18,-27,-14,-21,-29,78,70,46,30.08,30.05,30.01,,,,12,4,,0.00,,,322
2013-1-29,-12,-20,-29,-19,-27,-38,73,67,47,30.07,30.03,29.96,,,,16,11,,0.02,,,302
2013-1-30,-26,-30,-34,-39,-42,-44,65,57,31,29.96,29.93,29.91,,,,20,13,24,0.00,,,310
2013-1-31,-25,-30,-35,-33,-37,-43,69,65,47,29.92,29.85,29.74,,,,23,15,,0.10,,,304